{"data":{"norad_id":59874,"intl_designator":"2024-098S","name":"STARLINK-31933","alt_names":[],"object_type":"PAYLOAD","status":"ACTIVE","operator":null,"country":"US","launch_date":"2024-05-24","launch_site_code":"AFETR","launch_vehicle":null,"mission":null,"orbit_class":"UNKNOWN","rcs_meters":null,"size_class":null,"mass_kg":null,"dimensions":null,"purposes":["comms"],"wikipedia_slug":null,"has_3d_model":false,"image_url":null,"decayed_at":null,"tle_current":{"epoch":"2026-05-24T15:32:30.693408Z","epoch_age_seconds":105504,"freshness":"FRESH","line1":"1 59874U 24098S   26144.64757747  .00003240  00000+0  12730-3 0  9994","line2":"2 59874  43.0027 208.9682 0001899 281.7698  78.2940 15.27558971113469","mean_motion":15.27558971,"eccentricity":0.0001899,"inclination_deg":43.0027,"raan_deg":208.9682,"arg_perigee_deg":281.7698,"mean_anomaly_deg":78.294,"bstar":0.0001273,"rev_number":11346,"period_min":94.268046428173,"perigee_km":481.8091139557,"apogee_km":484.41501635064,"semimajor_km":6861.2490651532,"source":"CELESTRAK","updated_at":"2026-05-25T13:38:19.093571Z"}}}